SCP
0 0 0 0 0 0 0 0 0 0 0 0 0 0 0 0 0 0 0 0 0 0 0 0 0 0 0 0 0 0 0 0 0 0 0 0 0 0 0 0 0 0 0 0 0 0 0 0 0 0 0 0 0 0
0 0 0 0 0 0 0 0 0 0 0 0 0 0 0 0 0 0 0 0 0 0 0 0 0 0 0 0 0 0 0 0 0 0 0 0 0 0 0 0 0 0 0 0 0 0 0 0 0 0 0 0 0 0
0 0 0 0 0 0 0 0 0 0 0 0 0 0 0 0 0 0 0 0 0 0 0 0 0 0 0 0 0 0 0 0 0 0 0 0 0 0 0 0 0 0 0 0 0 0 0 0 0 0 0 0 0 0
0 0 0 0 0 0 0 0 0 0 0 0 0 0 0 0 0 0 0 0 0 0 0 0 0 0 0 0 0 0 0 0 0 0 0 0 0 0 0 0 0 0 0 0 0 0 0 0 0 0 0 0 0 0
0 0 0 0 0 0 0 0 0 0 0 0 -0 0 0 0 0 0 0 0 0 0 0 0 0 0 0 0 0 0 0 0 0 0 0 0 0 0 0 0 0 0 0 0 0 0 0 0 0 0 0 0 0 0
0 0 0 0 0 0 0 0 0 -0 0 0 0 0 0 0 0 0 0 0 0 0 0 0 0 0 0 0 0 0 0 0 0 0 0 0 0 0 0 0 0 0 0 0 0 0 0 0 0 0 0 0 0 0
0 0 0 0 0 0 0 0 0 0 0 0 -0 -0 0 0 0 0 0 0 0 0 0 0 0 0 0 0 0 0 0 0 0 0 0 0 0 0 0 0 -0 0 0 0 0 0 0 0 0 0 0 0 0 0
0 0 0 0 0 0 0 0 0 0 0 0 0 -0 0 0 0 0 0 0 0 0 0 0 0 0 0 0 0 0 0 0 0 0 0 0 0 0 0 -0 0 0 0 0 0 0 0 0 0 0 0 0 0 0
-0 0 0 0 0 0 0 0 0 -0 0 0 0 0 0 0 -0 0 0 0 0 0 0 0 0 0 0 0 0 0 0 0 0 0 0 0 0 0 -0 0 0 0 0 0 0 0 0 0 0 0 0 0 0 0
0 0 -0 0 0 0 0 0 0 0 0 0 0 0 0 0 -0 0 0 0 0 0 0 0 0 0 0 0 0 0 0 0 0 0 0 0 0 0 0 0 0 0 0 -0 0 0 0 0 0 -0 0 0 0 0
-0 -0 0 0 0 0 0 0 0 0 0 0 0 0 0 0 0 0 0 0 0 0 0 0 0 0 0 0 0 0 0 0 0 0 0 0 -0 -0 0 0 0 0 -0 -0 -0 0 0 0 0 -0 0 0 0 0
-0 -0 -0 -0 -0 -0 0 0 0 0 0 0 0 0 0 0 0 0 0 0 0 0 0 0 0 0 0 0 0 0 0 0 0 0 0 0 0 -0 0 0 -0 0 0 0 -0 0 0 0 0 -0 -0 0 0 0
-0 -0 -0 -0 -0 0 0 0 -0 -0 0 0 0 0 0 0 0 0 0 0 0 0 0 0 0 0 0 0 0 0 0 0 0 0 0 -0 0 0 0 0 0 0 0 0 -0 -0 0 -0 -0 -0 -0 -0 -0 -0
-0 -0 -0 -0 -0 0 0 0 0 0 0 0 0 0 0 0 0 0 0 0 0 0 0 0 0 0 0 0 0 0 0 0 0 0 0 0 0 0 0 0 0 0 0 0 -0 -0 -0 -0 -0 -0 -0 -0 -0 -0
-0 -0 -0 0 0 0 0 0 0 0 0 0 0 0 0 0 0 0 0 0 0 0 0 0 0 0 0 0 0 0 0 0 0 -0 0 0 0 -0 0 -0 -0 -0 -0 -0 -0 -0 -0 -0 -0 -0 -0 -0 -0 -0
-0 -0 0 0 0 0 0 0 0 0 0 0 0 0 0 0 0 0 0 0 0 0 0 0 0 0 0 0 0 0 0 0 0 0 0 0 -0 -0 0 0 -0 0 -0 -0 -0 -0 -0 -0 -0 0 0 0 0 0
-0 0 0 0 0 0 0 0 0 0 0 0 0 0 0 0 0 0 0 0 0 0 0 0 0 0 0 0 0 0 0 0 0 0 0 0 0 -0 0 0 -0 -0 -0 -0 -0 -0 0 0 0 0 0 0 0 0
-0 -0 0 0 0 0 0 0 0 0 0 0 0 0 0 0 0 0 0 0 0 0 0 0 0 0 0 0 0 0 0 0 0 0 0 0 0 0 0 -0 -0 -0 -0 -0 -0 -0 0 0 0 0 0 0 0 0
-0 0 0 -0 0 0 0 0 0 0 0 0 0 0 0 0 0 0 0 0 0 0 0 0 0 0 0 0 0 0 0 0 0 0 0 0 -0 -0 -0 -0 -0 -0 -0 0 -0 -0 -0 0 0 0 0 0 0 0
-0 -0 0 -0 0 0 0 0 0 0 0 0 0 0 0 0 0 0 0 0 0 0 0 0 0 0 0 0 0 -0 -0 -0 0 0 0 0 0 0 0 0 0 0 -0 -0 -0 0 0 0 0 0 0 0 0 0
-0 0 0 0 0 0 0 0 0 0 0 0 0 0 0 0 0 0 0 0 0 0 -0 0 0 0 -0 -0 -0 0 -0 -0 0 -0 0 0 0 0 0 0 0 -0 -0 -0 0 0 0 0 0 0 0 0 0 0
0 0 0 0 0 0 0 0 0 0 0 0 0 0 0 0 0 0 0 0 0 0 0 0 0 -0 -0 -0 -0 -0 -0 0 0 0 0 0 0 0 0 0 -0 -0 0 -0 -0 0 0 0 0 0 0 0 0 0
0 0 0 0 0 0 0 0 0 0 0 0 0 0 0 0 0 0 0 0 -0 -0 -0 0 0 0 -0 -0 -0 -0 0 0 0 0 0 0 0 0 0 -0 -0 -0 -0 0 -0 -0 0 0 0 0 0 0 0 0
0 0 0 0 0 0 0 0 0 0 0 0 0 0 0 0 0 0 0 -0 -0 0 0 -0 0 -0 -0 -0 -0 0 0 0 0 0 0 0 0 0 -0 -0 -0 0 0 0 0 0 0 0 0 0 0 0 0 0
0 0 0 0 0 0 0 0 0 0 -0 0 0 0 0 0 0 0 -0 -0 -0 -0 -0 -0 -0 -0 -0 0 -0 0 0 0 0 0 0 0 0 0 0 -0 -0 0 0 0 0 0 0 0 0 0 0 0 0 0
0 0 0 0 0 0 0 0 -0 -0 0 0 0 0 0 0 0 -0 -0 0 0 -0 -0 -0 0 0 0 0 -0 0 0 0 0 0 0 0 0 0 -0 -0 -0 0 0 -0 0 0 0 0 0 0 0 0 0 0
-0 -0 0 0 0 -0 -0 -0 -0 -0 0 0 0 0 0 -0 -0 0 0 0 0 0 0 0 0 0 0 0 0 0 0 0 0 0 0 0 0 0 0 0 0 0 0 0 0 0 0 0 0 0 0 0 0 0
-0 -0 -0 -0 0 -0 -0 -0 -0 -0 -0 0 0 0 0 -0 -0 -0 -0 -0 -0 0 0 0 0 0 0 0 0 0 0 0 0 0 0 0 0 0 0 0 -0 0 0 0 0 0 0 0 0 0 0 0 0 0
-0 -0 -0 -0 -0 -0 -0 -0 -0 -0 -0 -0 -0 -0 -0 -0 -0 0 0 0 -0 -0 0 0 0 0 0 0 0 0 0 0 0 0 0 0 0 0 0 -0 0 0 0 0 0 0 0 0 0 0 0 0 0 0
-0 -0 -0 -0 0 0 0 0 0 0 -0 -0 0 -0 -0 -0 -0 0 0 0 -0 -0 -0 0 0 0 0 0 0 0 0 0 0 0 0 0 0 0 0 -0 0 0 0 0 0 0 0 0 0 0 0 0 0 0
-0 0 0 0 0 0 0 -0 -0 -0 -0 -0 -0 -0 0 0 0 0 0 0 0 0 0 0 0 0 0 0 0 0 0 0 0 0 0 0 0 0 0 0 0 0 0 0 0 0 0 0 0 0 0 0 0 0
-0 0 0 0 0 -0 -0 -0 -0 -0 -0 -0 -0 0 0 0 0 0 0 0 0 0 0 0 0 0 0 0 0 0 0 0 0 0 0 0 0 0 0 0 0 0 0 0 0 0 0 0 0 0 0 0 0 0
0 0 0 0 0 -0 -0 -0 -0 -0 0 0 0 0 0 0 0 0 0 0 0 0 0 0 0 0 0 0 0 0 0 0 0 0 0 0 0 0 0 0 0 0 0 0 0 0 0 0 0 0 0 0 0 0
Wind_Speed_500mb
72 72 76 80 80 82 76 80 75 74 71 71 69 68 67 71 60 57 58 62 41 37 51 39 48 33 22 24 10 21 11 9 6 9 7 8 7 9 1 9 13 17 17 11 9 8 21 28 11 14 8 5 9 18
72 73 73 77 82 78 80 80 83 79 80 68 70 70 58 68 73 65 64 58 50 45 22 46 59 58 45 36 32 42 9 16 24 6 6 4 4 3 7 7 1 5 15 12 23 19 7 43 21 35 12 11 14 25
76 72 74 73 72 72 85 83 81 80 88 73 65 69 80 66 70 73 71 48 62 51 47 40 46 55 64 60 53 22 19 21 19 13 9 3 12 7 8 12 12 10 18 7 5 19 40 59 66 65 50 43 33 25
71 74 77 78 75 68 69 72 79 78 76 78 72 64 62 77 67 63 69 58 61 13 16 29 40 62 70 61 53 52 41 33 27 28 8 4 6 18 7 5 8 10 20 12 12 40 39 62 64 68 63 58 63 48
70 71 76 80 80 80 77 81 77 87 61 65 68 73 61 73 73 70 71 73 56 62 6 9 34 46 49 57 62 59 56 40 22 16 8 7 8 4 5 4 9 25 25 13 26 56 40 47 51 48 36 39 46 56
71 71 68 70 70 72 74 77 84 86 66 68 64 75 64 65 73 57 45 88 81 64 16 6 11 23 42 38 39 44 46 36 22 14 10 13 10 8 6 8 27 58 76 78 63 78 67 71 69 54 47 52 41 42
69 67 64 60 61 62 61 64 66 79 86 60 57 71 62 56 62 59 17 19 75 65 28 3 7 13 25 30 27 27 36 21 19 11 11 7 13 16 6 14 66 41 56 64 70 80 67 79 54 46 38 38 35 33
66 64 64 62 62 62 63 64 64 68 73 79 65 62 54 46 56 56 45 29 66 61 21 7 5 12 31 15 12 21 17 19 16 9 7 8 8 12 13 41 76 53 49 68 80 81 91 85 62 41 48 53 49 46
65 64 62 61 60 57 57 56 58 54 74 65 55 50 55 55 52 51 58 47 72 31 15 10 14 9 32 11 14 15 16 5 14 4 8 13 6 15 22 43 64 59 43 54 52 49 58 73 74 56 52 48 45 43
62 59 58 59 56 55 56 53 52 46 36 42 47 38 23 50 58 46 52 44 25 20 16 3 16 7 19 11 9 13 11 5 5 10 15 7 11 52 61 85 102 102 80 67 61 61 63 59 60 62 69 60 54 45
48 46 44 47 48 47 48 45 45 49 47 45 36 26 25 52 53 27 16 16 18 11 23 20 20 12 22 7 7 11 6 5 4 6 8 7 10 11 51 62 56 53 47 52 59 60 61 56 35 25 32 48 48 45
32 36 40 38 42 43 48 43 39 51 71 92 42 53 51 24 18 12 14 10 10 14 15 14 16 22 19 13 9 9 8 3 12 10 4 8 9 51 49 44 35 37 42 41 42 42 47 55 53 40 32 29 44 44
38 41 44 49 50 48 45 40 39 42 48 76 34 25 21 16 11 15 14 6 10 10 18 25 10 19 15 11 12 6 8 11 7 2 9 10 30 51 61 50 45 39 45 41 29 34 40 46 54 67 67 55 38 52
44 45 60 48 42 41 39 36 35 43 40 16 11 14 8 8 6 5 12 16 15 41 48 51 19 10 12 6 7 10 2 5 3 6 13 8 46 51 42 31 27 24 30 35 30 26 30 36 38 49 60 54 41 52
45 55 39 31 28 30 28 23 31 43 15 2 7 5 5 8 14 12 24 28 26 65 65 24 12 12 5 7 2 10 6 12 14 10 9 36 50 29 23 18 12 16 23 28 30 24 27 26 33 42 55 55 40 45
49 35 32 32 30 30 26 18 20 11 4 10 5 5 9 4 2 9 14 20 40 53 43 14 8 8 8 9 8 18 14 15 9 8 37 34 26 25 23 16 18 28 31 29 28 30 25 23 30 34 55 60 46 47
30 37 27 31 36 35 28 23 10 0 1 6 5 9 8 17 14 10 13 21 46 44 5 7 12 16 5 5 7 10 10 8 16 27 30 28 26 23 23 28 33 37 35 37 36 35 31 24 28 42 57 63 52 44
32 26 23 35 36 39 34 22 12 6 10 12 6 14 15 13 31 23 17 43 33 15 14 8 13 5 11 13 8 8 37 52 48 44 39 34 24 26 27 33 41 43 42 39 36 32 31 18 22 30 47 59 56 47
29 30 29 31 51 34 12 16 10 5 4 4 16 37 19 19 20 23 19 49 19 16 13 7 5 8 8 8 7 12 17 26 42 50 54 49 40 39 40 37 34 34 32 30 27 26 24 18 14 19 34 53 60 49
11 29 40 54 64 11 10 7 13 4 4 8 18 20 23 16 28 33 39 40 26 12 4 6 8 6 5 11 22 33 34 35 37 38 33 30 27 22 18 20 24 24 23 23 22 22 19 18 12 12 26 41 47 45
52 56 62 51 26 7 8 6 4 7 14 9 26 17 11 23 15 17 20 32 13 15 7 18 26 34 46 45 35 40 44 50 38 28 22 11 6 6 9 14 18 20 20 20 18 18 15 12 11 13 24 35 38 37
27 25 28 16 8 8 8 3 8 11 4 8 16 12 14 6 11 14 24 21 15 15 21 33 44 39 48 65 46 40 38 35 25 22 21 10 2 1 9 14 19 21 22 20 17 14 10 5 2 8 14 21 24 23
16 10 8 7 7 9 5 7 5 3 5 5 9 5 0 4 15 25 8 16 19 29 40 44 42 34 35 57 55 53 43 31 22 12 10 7 5 8 15 20 22 20 18 16 14 12 10 9 11 13 15 18 19 22
9 7 7 7 9 3 7 5 7 6 6 3 7 5 3 6 18 3 7 11 31 38 47 51 48 38 40 51 57 49 39 34 27 19 15 11 5 10 16 24 26 22 16 14 11 10 10 12 15 17 18 19 21 22
5 8 5 7 7 7 3 2 4 3 6 8 4 5 5 16 6 9 9 10 47 48 51 54 50 43 45 58 52 40 37 36 32 25 23 9 5 4 12 25 26 20 17 12 7 6 9 13 17 20 23 23 25 28
7 5 5 7 3 7 5 2 1 2 4 8 11 5 10 5 6 13 9 31 45 49 65 64 62 55 58 67 52 40 37 35 35 29 22 15 9 2 14 21 25 20 11 7 4 6 9 13 16 20 24 27 26 28
1 6 2 3 3 3 4 3 3 2 7 10 5 8 8 11 16 9 9 20 28 39 45 56 55 60 65 66 52 40 36 36 36 29 22 13 10 7 11 10 13 17 8 1 6 11 11 15 20 24 27 31 31 29
4 13 8 12 8 8 4 4 7 11 8 7 4 12 9 12 5 3 8 13 19 28 35 42 52 53 53 51 45 37 35 36 33 27 21 16 8 5 5 10 11 8 5 7 10 13 16 17 20 26 28 32 37 35
2 7 10 3 5 7 10 11 8 7 6 9 5 6 4 5 6 8 14 15 16 26 29 34 38 42 43 41 35 33 35 36 34 32 28 19 11 6 8 11 9 8 9 12 18 22 23 23 26 29 32 34 37 37
6 12 3 3 6 10 10 17 7 11 13 16 13 12 11 12 13 15 17 13 15 23 29 32 35 37 35 31 31 33 34 34 34 29 23 20 15 11 2 9 13 14 16 18 21 27 32 32 35 36 36 37 37 37
9 12 8 12 8 9 14 18 23 24 18 14 18 15 13 11 10 7 7 7 14 19 25 29 31 33 35 35 33 31 29 28 27 26 24 23 18 9 11 17 18 18 19 22 25 29 34 38 37 37 36 35 34 30
7 10 4 6 6 8 12 7 6 7 10 12 12 15 7 6 6 4 4 10 15 19 24 29 31 31 32 32 30 28 24 22 22 21 19 15 15 19 20 20 22 24 27 29 32 35 37 37 38 37 36 34 32 29
5 6 9 11 8 6 5 6 7 5 10 9 11 14 11 7 5 4 10 17 17 20 24 25 26 26 26 25 23 21 19 18 16 17 19 22 21 22 24 26 28 32 35 38 41 41 39 37 37 35 32 31 32 33
Wind_Direction_500mb
279 280 276 273 269 266 264 262 258 257 262 253 249 244 241 239 239 237 256 230 226 231 242 218 211 192 186 178 164 142 130 194 174 199 193 221 208 214 148 170 181 175 166 194 184 205 274 159 115 177 218 199 230 208
282 281 283 272 268 264 261 261 259 257 252 253 247 242 243 235 231 233 240 244 236 243 253 229 235 237 230 238 210 175 219 154 180 170 197 266 270 140 195 247 320 256 197 186 192 209 225 194 222 225 255 248 239 225
284 282 278 274 267 272 269 258 252 258 259 242 245 242 242 239 229 229 224 230 226 231 247 243 233 227 228 235 236 187 211 193 201 189 169 188 236 130 192 235 196 254 187 229 83 246 241 246 244 249 253 256 255 248
284 281 279 276 271 267 267 273 264 251 253 256 237 236 239 239 233 234 222 222 216 233 223 239 237 234 234 242 234 236 234 199 201 196 193 210 199 194 238 227 201 193 145 208 264 267 279 269 254 261 270 262 254 247
283 284 278 274 273 268 266 264 267 258 242 244 251 233 237 235 232 229 231 224 221 211 240 206 229 222 222 224 227 230 231 228 187 162 202 221 241 169 225 31 234 190 224 215 251 260 240 257 269 282 264 259 261 245
282 282 282 278 273 271 267 262 257 259 248 245 253 236 227 231 228 222 228 231 225 222 250 205 219 210 208 212 217 221 223 205 194 176 193 224 218 199 256 252 240 235 240 234 247 264 267 268 273 271 263 274 261 249
281 279 280 279 279 276 272 267 263 248 248 240 249 247 215 228 231 226 205 218 204 205 215 196 206 176 172 174 175 184 200 201 195 197 223 230 193 198 244 250 262 239 253 252 258 256 263 260 254 261 262 257 247 255
281 279 277 280 277 274 267 267 264 260 238 232 238 246 229 228 229 227 186 176 182 179 185 235 102 150 168 155 142 172 176 194 208 224 211 203 184 215 252 241 263 268 265 259 258 257 260 266 262 250 248 249 245 248
282 280 274 277 275 272 266 263 264 264 221 217 222 226 228 223 226 225 195 165 172 172 189 205 152 177 163 137 136 153 166 175 193 221 217 166 213 226 237 249 264 266 253 270 274 267 263 258 260 249 242 239 240 248
279 272 272 272 269 265 264 259 250 248 237 202 211 214 205 217 227 215 175 171 181 199 214 216 118 143 154 149 154 132 178 212 199 223 166 207 251 259 259 263 268 272 272 275 261 255 256 256 256 244 237 241 245 248
272 271 273 278 273 262 261 259 245 237 223 214 210 214 201 181 161 175 161 174 162 186 194 179 152 135 174 140 146 196 174 169 223 236 164 247 265 250 276 272 276 277 268 267 272 271 265 262 263 255 238 229 233 238
279 278 284 282 273 265 259 257 243 234 240 220 205 188 183 200 181 176 167 160 174 192 144 141 138 136 151 150 115 185 164 90 240 145 102 260 252 268 280 280 289 275 264 284 282 269 258 254 245 248 258 260 241 234
289 289 287 293 276 264 259 254 243 231 156 163 209 165 196 183 177 182 148 169 167 134 147 145 111 134 138 154 99 117 131 219 128 134 229 232 258 282 280 293 292 282 281 291 291 274 264 253 243 239 242 245 255 226
288 287 294 283 269 247 249 258 226 178 160 212 172 195 200 141 152 183 189 185 130 139 146 146 126 141 147 120 144 134 197 76 245 246 236 242 253 275 296 301 297 300 295 295 297 292 294 257 240 231 225 226 235 220
288 294 283 255 240 230 240 210 205 187 185 161 200 228 130 120 62 86 108 118 129 150 145 131 100 133 127 117 136 100 55 239 208 232 222 245 269 284 284 290 302 317 320 317 308 302 311 263 238 223 215 213 222 219
291 281 253 234 222 218 221 209 219 222 112 161 299 119 120 106 81 97 101 112 139 151 147 121 131 157 193 139 124 215 154 213 240 220 245 268 273 279 276 267 305 325 324 317 318 318 306 280 247 229 213 210 215 218
269 252 250 225 211 204 201 197 198 303 233 305 132 142 94 93 110 124 135 161 154 144 133 132 169 198 103 128 225 187 205 223 260 285 293 293 280 276 273 282 294 308 310 310 311 315 314 282 252 227 213 211 215 219
236 244 257 192 185 180 186 186 204 251 175 198 143 159 137 127 129 140 162 160 157 196 144 170 130 163 186 170 243 230 229 252 258 267 282 283 293 290 288 298 299 300 301 302 302 310 316 290 267 243 217 208 213 219
250 236 233 189 173 159 142 182 192 208 118 203 145 142 134 149 125 123 142 170 180 172 130 119 183 200 213 221 229 262 253 272 279 283 275 270 284 289 288 293 304 307 305 301 303 305 309 298 280 244 211 210 211 215
115 177 170 171 173 122 127 117 143 171 200 172 139 124 140 149 164 155 158 174 178 174 193 214 227 251 313 334 312 309 308 303 297 297 293 273 263 275 296 320 324 325 324 319 313 307 307 300 280 237 216 202 210 217
86 106 130 151 120 77 88 122 143 146 133 137 143 123 90 142 144 166 175 166 209 197 201 222 263 268 293 304 313 303 302 298 296 268 276 280 240 329 342 352 349 347 344 338 330 320 312 298 284 207 198 200 202 204
103 104 105 104 115 116 103 91 118 117 101 112 128 127 133 148 167 196 173 194 230 211 199 228 250 263 278 284 297 311 292 286 271 265 259 230 194 51 38 26 14 6 359 355 354 353 346 332 229 176 170 186 192 199
107 91 72 62 83 62 63 127 75 112 117 188 120 70 211 183 181 164 198 227 232 217 231 238 251 256 282 281 279 283 283 270 243 198 216 185 140 69 42 27 17 9 6 8 12 28 49 83 116 143 156 161 167 170
71 48 37 56 56 162 131 129 133 134 123 134 132 168 247 183 162 160 244 228 220 223 225 236 237 240 257 261 264 268 266 247 230 213 191 180 58 41 41 32 11 9 13 15 30 55 86 109 118 127 136 150 153 158
111 354 33 1 56 68 102 194 236 134 199 214 171 235 224 161 166 220 217 235 219 217 227 234 232 230 239 241 250 258 249 233 225 215 208 172 205 92 41 31 7 7 14 19 34 69 101 115 122 127 132 139 144 145
62 356 86 172 210 138 205 262 209 108 184 197 220 131 146 150 213 239 216 219 213 220 223 223 224 215 221 228 238 247 236 221 216 219 212 173 188 262 42 23 356 344 348 9 71 112 132 133 134 136 138 137 139 144
63 267 137 204 131 106 351 265 274 238 238 219 184 166 171 213 224 239 249 233 220 218 210 213 213 209 218 218 227 232 219 213 212 215 215 187 173 95 35 358 352 331 308 248 145 139 144 146 144 142 142 135 132 136
188 179 168 181 193 183 191 244 212 220 221 198 181 198 209 206 255 276 284 284 238 220 205 199 201 204 211 214 216 212 203 202 202 204 199 192 192 109 24 329 347 303 242 194 166 149 141 142 144 142 141 139 134 132
203 173 169 218 208 205 219 213 232 236 203 174 221 254 270 264 235 273 293 281 235 229 217 205 200 201 204 207 207 201 197 194 192 191 195 193 193 265 299 358 307 251 204 185 170 155 149 148 146 144 142 141 136 133
220 185 153 272 219 225 225 211 223 236 251 242 255 276 271 264 277 291 283 257 229 211 211 207 203 199 192 187 188 189 190 191 196 201 208 218 230 235 329 294 246 217 196 186 175 164 154 152 148 146 144 142 140 139
171 192 237 231 248 233 234 256 266 268 254 242 232 244 262 292 292 276 258 220 201 189 186 188 190 195 198 199 199 201 204 208 215 220 224 230 237 251 244 227 213 195 177 167 162 160 155 152 149 146 145 141 138 140
207 216 250 270 265 265 280 235 242 245 211 203 225 218 253 269 275 269 198 188 178 174 174 177 182 185 187 191 195 200 206 208 207 211 220 225 213 199 191 184 175 168 162 157 155 154 152 152 148 147 145 145 144 143
259 241 259 285 293 292 275 280 251 253 210 207 193 203 210 224 244 209 183 176 176 165 158 157 158 160 166 170 174 180 185 186 185 182 181 175 169 168 165 162 160 158 156 155 153 151 151 152 149 148 148 145 141 139
Wind_Speed_850mb
72 72 76 80 80 82 76 80 75 74 71 71 69 68 67 71 60 57 58 62 41 37 51 39 48 33 22 24 10 21 11 9 6 9 7 8 7 9 1 9 13 17 17 11 9 8 21 28 11 14 8 5 9 18
72 73 73 77 82 78 80 80 83 79 80 68 70 70 58 68 73 65 64 58 50 45 22 46 59 58 45 36 32 42 9 16 24 6 6 4 4 3 7 7 1 5 15 12 23 19 7 43 21 35 12 11 14 25
76 72 74 73 72 72 85 83 81 80 88 73 65 69 80 66 70 73 71 48 62 51 47 40 46 55 64 60 53 22 19 21 19 13 9 3 12 7 8 12 12 10 18 7 5 19 40 59 66 65 50 43 33 25
71 74 77 78 75 68 69 72 79 78 76 78 72 64 62 77 67 63 69 58 61 13 16 29 40 62 70 61 53 52 41 33 27 28 8 4 6 18 7 5 8 10 20 12 12 40 39 62 64 68 63 58 63 48
70 71 76 80 80 80 77 81 77 87 61 65 68 73 61 73 73 70 71 73 56 62 6 9 34 46 49 57 62 59 56 40 22 16 8 7 8 4 5 4 9 25 25 13 26 56 40 47 51 48 36 39 46 56
71 71 68 70 70 72 74 77 84 86 66 68 64 75 64 65 73 57 45 88 81 64 16 6 11 23 42 38 39 44 46 36 22 14 10 13 10 8 6 8 27 58 76 78 63 78 67 71 69 54 47 52 41 42
69 67 64 60 61 62 61 64 66 79 86 60 57 71 62 56 62 59 17 19 75 65 28 3 7 13 25 30 27 27 36 21 19 11 11 7 13 16 6 14 66 41 56 64 70 80 67 79 54 46 38 38 35 33
66 64 64 62 62 62 63 64 64 68 73 79 65 62 54 46 56 56 45 29 66 61 21 7 5 12 31 15 12 21 17 19 16 9 7 8 8 12 13 41 76 53 49 68 80 81 91 85 62 41 48 53 49 46
65 64 62 61 60 57 57 56 58 54 74 65 55 50 55 55 52 51 58 47 72 31 15 10 14 9 32 11 14 15 16 5 14 4 8 13 6 15 22 43 64 59 43 54 52 49 58 73 74 56 52 48 45 43
62 59 58 59 56 55 56 53 52 46 36 42 47 38 23 50 58 46 52 44 25 20 16 3 16 7 19 11 9 13 11 5 5 10 15 7 11 52 61 85 102 102 80 67 61 61 63 59 60 62 69 60 54 45
48 46 44 47 48 47 48 45 45 49 47 45 36 26 25 52 53 27 16 16 18 11 23 20 20 12 22 7 7 11 6 5 4 6 8 7 10 11 51 62 56 53 47 52 59 60 61 56 35 25 32 48 48 45
32 36 40 38 42 43 48 43 39 51 71 92 42 53 51 24 18 12 14 10 10 14 15 14 16 22 19 13 9 9 8 3 12 10 4 8 9 51 49 44 35 37 42 41 42 42 47 55 53 40 32 29 44 44
38 41 44 49 50 48 45 40 39 42 48 76 34 25 21 16 11 15 14 6 10 10 18 25 10 19 15 11 12 6 8 11 7 2 9 10 30 51 61 50 45 39 45 41 29 34 40 46 54 67 67 55 38 52
44 45 60 48 42 41 39 36 35 43 40 16 11 14 8 8 6 5 12 16 15 41 48 51 19 10 12 6 7 10 2 5 3 6 13 8 46 51 42 31 27 24 30 35 30 26 30 36 38 49 60 54 41 52
45 55 39 31 28 30 28 23 31 43 15 2 7 5 5 8 14 12 24 28 26 65 65 24 12 12 5 7 2 10 6 12 14 10 9 36 50 29 23 18 12 16 23 28 30 24 27 26 33 42 55 55 40 45
49 35 32 32 30 30 26 18 20 11 4 10 5 5 9 4 2 9 14 20 40 53 43 14 8 8 8 9 8 18 14 15 9 8 37 34 26 25 23 16 18 28 31 29 28 30 25 23 30 34 55 60 46 47
30 37 27 31 36 35 28 23 10 0 1 6 5 9 8 17 14 10 13 21 46 44 5 7 12 16 5 5 7 10 10 8 16 27 30 28 26 23 23 28 33 37 35 37 36 35 31 24 28 42 57 63 52 44
32 26 23 35 36 39 34 22 12 6 10 12 6 14 15 13 31 23 17 43 33 15 14 8 13 5 11 13 8 8 37 52 48 44 39 34 24 26 27 33 41 43 42 39 36 32 31 18 22 30 47 59 56 47
29 30 29 31 51 34 12 16 10 5 4 4 16 37 19 19 20 23 19 49 19 16 13 7 5 8 8 8 7 12 17 26 42 50 54 49 40 39 40 37 34 34 32 30 27 26 24 18 14 19 34 53 60 49
11 29 40 54 64 11 10 7 13 4 4 8 18 20 23 16 28 33 39 40 26 12 4 6 8 6 5 11 22 33 34 35 37 38 33 30 27 22 18 20 24 24 23 23 22 22 19 18 12 12 26 41 47 45
52 56 62 51 26 7 8 6 4 7 14 9 26 17 11 23 15 17 20 32 13 15 7 18 26 34 46 45 35 40 44 50 38 28 22 11 6 6 9 14 18 20 20 20 18 18 15 12 11 13 24 35 38 37
27 25 28 16 8 8 8 3 8 11 4 8 16 12 14 6 11 14 24 21 15 15 21 33 44 39 48 65 46 40 38 35 25 22 21 10 2 1 9 14 19 21 22 20 17 14 10 5 2 8 14 21 24 23
16 10 8 7 7 9 5 7 5 3 5 5 9 5 0 4 15 25 8 16 19 29 40 44 42 34 35 57 55 53 43 31 22 12 10 7 5 8 15 20 22 20 18 16 14 12 10 9 11 13 15 18 19 22
9 7 7 7 9 3 7 5 7 6 6 3 7 5 3 6 18 3 7 11 31 38 47 51 48 38 40 51 57 49 39 34 27 19 15 11 5 10 16 24 26 22 16 14 11 10 10 12 15 17 18 19 21 22
5 8 5 7 7 7 3 2 4 3 6 8 4 5 5 16 6 9 9 10 47 48 51 54 50 43 45 58 52 40 37 36 32 25 23 9 5 4 12 25 26 20 17 12 7 6 9 13 17 20 23 23 25 28
7 5 5 7 3 7 5 2 1 2 4 8 11 5 10 5 6 13 9 31 45 49 65 64 62 55 58 67 52 40 37 35 35 29 22 15 9 2 14 21 25 20 11 7 4 6 9 13 16 20 24 27 26 28
1 6 2 3 3 3 4 3 3 2 7 10 5 8 8 11 16 9 9 20 28 39 45 56 55 60 65 66 52 40 36 36 36 29 22 13 10 7 11 10 13 17 8 1 6 11 11 15 20 24 27 31 31 29
4 13 8 12 8 8 4 4 7 11 8 7 4 12 9 12 5 3 8 13 19 28 35 42 52 53 53 51 45 37 35 36 33 27 21 16 8 5 5 10 11 8 5 7 10 13 16 17 20 26 28 32 37 35
2 7 10 3 5 7 10 11 8 7 6 9 5 6 4 5 6 8 14 15 16 26 29 34 38 42 43 41 35 33 35 36 34 32 28 19 11 6 8 11 9 8 9 12 18 22 23 23 26 29 32 34 37 37
6 12 3 3 6 10 10 17 7 11 13 16 13 12 11 12 13 15 17 13 15 23 29 32 35 37 35 31 31 33 34 34 34 29 23 20 15 11 2 9 13 14 16 18 21 27 32 32 35 36 36 37 37 37
9 12 8 12 8 9 14 18 23 24 18 14 18 15 13 11 10 7 7 7 14 19 25 29 31 33 35 35 33 31 29 28 27 26 24 23 18 9 11 17 18 18 19 22 25 29 34 38 37 37 36 35 34 30
7 10 4 6 6 8 12 7 6 7 10 12 12 15 7 6 6 4 4 10 15 19 24 29 31 31 32 32 30 28 24 22 22 21 19 15 15 19 20 20 22 24 27 29 32 35 37 37 38 37 36 34 32 29
5 6 9 11 8 6 5 6 7 5 10 9 11 14 11 7 5 4 10 17 17 20 24 25 26 26 26 25 23 21 19 18 16 17 19 22 21 22 24 26 28 32 35 38 41 41 39 37 37 35 32 31 32 33
Wind_Direction_850mb
279 280 276 273 269 266 264 262 258 257 262 253 249 244 241 239 239 237 256 230 226 231 242 218 211 192 186 178 164 142 130 194 174 199 193 221 208 214 148 170 181 175 166 194 184 205 274 159 115 177 218 199 230 208
282 281 283 272 268 264 261 261 259 257 252 253 247 242 243 235 231 233 240 244 236 243 253 229 235 237 230 238 210 175 219 154 180 170 197 266 270 140 195 247 320 256 197 186 192 209 225 194 222 225 255 248 239 225
284 282 278 274 267 272 269 258 252 258 259 242 245 242 242 239 229 229 224 230 226 231 247 243 233 227 228 235 236 187 211 193 201 189 169 188 236 130 192 235 196 254 187 229 83 246 241 246 244 249 253 256 255 248
284 281 279 276 271 267 267 273 264 251 253 256 237 236 239 239 233 234 222 222 216 233 223 239 237 234 234 242 234 236 234 199 201 196 193 210 199 194 238 227 201 193 145 208 264 267 279 269 254 261 270 262 254 247
283 284 278 274 273 268 266 264 267 258 242 244 251 233 237 235 232 229 231 224 221 211 240 206 229 222 222 224 227 230 231 228 187 162 202 221 241 169 225 31 234 190 224 215 251 260 240 257 269 282 264 259 261 245
282 282 282 278 273 271 267 262 257 259 248 245 253 236 227 231 228 222 228 231 225 222 250 205 219 210 208 212 217 221 223 205 194 176 193 224 218 199 256 252 240 235 240 234 247 264 267 268 273 271 263 274 261 249
281 279 280 279 279 276 272 267 263 248 248 240 249 247 215 228 231 226 205 218 204 205 215 196 206 176 172 174 175 184 200 201 195 197 223 230 193 198 244 250 262 239 253 252 258 256 263 260 254 261 262 257 247 255
281 279 277 280 277 274 267 267 264 260 238 232 238 246 229 228 229 227 186 176 182 179 185 235 102 150 168 155 142 172 176 194 208 224 211 203 184 215 252 241 263 268 265 259 258 257 260 266 262 250 248 249 245 248
282 280 274 277 275 272 266 263 264 264 221 217 222 226 228 223 226 225 195 165 172 172 189 205 152 177 163 137 136 153 166 175 193 221 217 166 213 226 237 249 264 266 253 270 274 267 263 258 260 249 242 239 240 248
279 272 272 272 269 265 264 259 250 248 237 202 211 214 205 217 227 215 175 171 181 199 214 216 118 143 154 149 154 132 178 212 199 223 166 207 251 259 259 263 268 272 272 275 261 255 256 256 256 244 237 241 245 248
272 271 273 278 273 262 261 259 245 237 223 214 210 214 201 181 161 175 161 174 162 186 194 179 152 135 174 140 146 196 174 169 223 236 164 247 265 250 276 272 276 277 268 267 272 271 265 262 263 255 238 229 233 238
279 278 284 282 273 265 259 257 243 234 240 220 205 188 183 200 181 176 167 160 174 192 144 141 138 136 151 150 115 185 164 90 240 145 102 260 252 268 280 280 289 275 264 284 282 269 258 254 245 248 258 260 241 234
289 289 287 293 276 264 259 254 243 231 156 163 209 165 196 183 177 182 148 169 167 134 147 145 111 134 138 154 99 117 131 219 128 134 229 232 258 282 280 293 292 282 281 291 291 274 264 253 243 239 242 245 255 226
288 287 294 283 269 247 249 258 226 178 160 212 172 195 200 141 152 183 189 185 130 139 146 146 126 141 147 120 144 134 197 76 245 246 236 242 253 275 296 301 297 300 295 295 297 292 294 257 240 231 225 226 235 220
288 294 283 255 240 230 240 210 205 187 185 161 200 228 130 120 62 86 108 118 129 150 145 131 100 133 127 117 136 100 55 239 208 232 222 245 269 284 284 290 302 317 320 317 308 302 311 263 238 223 215 213 222 219
291 281 253 234 222 218 221 209 219 222 112 161 299 119 120 106 81 97 101 112 139 151 147 121 131 157 193 139 124 215 154 213 240 220 245 268 273 279 276 267 305 325 324 317 318 318 306 280 247 229 213 210 215 218
269 252 250 225 211 204 201 197 198 303 233 305 132 142 94 93 110 124 135 161 154 144 133 132 169 198 103 128 225 187 205 223 260 285 293 293 280 276 273 282 294 308 310 310 311 315 314 282 252 227 213 211 215 219
236 244 257 192 185 180 186 186 204 251 175 198 143 159 137 127 129 140 162 160 157 196 144 170 130 163 186 170 243 230 229 252 258 267 282 283 293 290 288 298 299 300 301 302 302 310 316 290 267 243 217 208 213 219
250 236 233 189 173 159 142 182 192 208 118 203 145 142 134 149 125 123 142 170 180 172 130 119 183 200 213 221 229 262 253 272 279 283 275 270 284 289 288 293 304 307 305 301 303 305 309 298 280 244 211 210 211 215
115 177 170 171 173 122 127 117 143 171 200 172 139 124 140 149 164 155 158 174 178 174 193 214 227 251 313 334 312 309 308 303 297 297 293 273 263 275 296 320 324 325 324 319 313 307 307 300 280 237 216 202 210 217
86 106 130 151 120 77 88 122 143 146 133 137 143 123 90 142 144 166 175 166 209 197 201 222 263 268 293 304 313 303 302 298 296 268 276 280 240 329 342 352 349 347 344 338 330 320 312 298 284 207 198 200 202 204
103 104 105 104 115 116 103 91 118 117 101 112 128 127 133 148 167 196 173 194 230 211 199 228 250 263 278 284 297 311 292 286 271 265 259 230 194 51 38 26 14 6 359 355 354 353 346 332 229 176 170 186 192 199
107 91 72 62 83 62 63 127 75 112 117 188 120 70 211 183 181 164 198 227 232 217 231 238 251 256 282 281 279 283 283 270 243 198 216 185 140 69 42 27 17 9 6 8 12 28 49 83 116 143 156 161 167 170
71 48 37 56 56 162 131 129 133 134 123 134 132 168 247 183 162 160 244 228 220 223 225 236 237 240 257 261 264 268 266 247 230 213 191 180 58 41 41 32 11 9 13 15 30 55 86 109 118 127 136 150 153 158
111 354 33 1 56 68 102 194 236 134 199 214 171 235 224 161 166 220 217 235 219 217 227 234 232 230 239 241 250 258 249 233 225 215 208 172 205 92 41 31 7 7 14 19 34 69 101 115 122 127 132 139 144 145
62 356 86 172 210 138 205 262 209 108 184 197 220 131 146 150 213 239 216 219 213 220 223 223 224 215 221 228 238 247 236 221 216 219 212 173 188 262 42 23 356 344 348 9 71 112 132 133 134 136 138 137 139 144
63 267 137 204 131 106 351 265 274 238 238 219 184 166 171 213 224 239 249 233 220 218 210 213 213 209 218 218 227 232 219 213 212 215 215 187 173 95 35 358 352 331 308 248 145 139 144 146 144 142 142 135 132 136
188 179 168 181 193 183 191 244 212 220 221 198 181 198 209 206 255 276 284 284 238 220 205 199 201 204 211 214 216 212 203 202 202 204 199 192 192 109 24 329 347 303 242 194 166 149 141 142 144 142 141 139 134 132
203 173 169 218 208 205 219 213 232 236 203 174 221 254 270 264 235 273 293 281 235 229 217 205 200 201 204 207 207 201 197 194 192 191 195 193 193 265 299 358 307 251 204 185 170 155 149 148 146 144 142 141 136 133
220 185 153 272 219 225 225 211 223 236 251 242 255 276 271 264 277 291 283 257 229 211 211 207 203 199 192 187 188 189 190 191 196 201 208 218 230 235 329 294 246 217 196 186 175 164 154 152 148 146 144 142 140 139
171 192 237 231 248 233 234 256 266 268 254 242 232 244 262 292 292 276 258 220 201 189 186 188 190 195 198 199 199 201 204 208 215 220 224 230 237 251 244 227 213 195 177 167 162 160 155 152 149 146 145 141 138 140
207 216 250 270 265 265 280 235 242 245 211 203 225 218 253 269 275 269 198 188 178 174 174 177 182 185 187 191 195 200 206 208 207 211 220 225 213 199 191 184 175 168 162 157 155 154 152 152 148 147 145 145 144 143
259 241 259 285 293 292 275 280 251 253 210 207 193 203 210 224 244 209 183 176 176 165 158 157 158 160 166 170 174 180 185 186 185 182 181 175 169 168 165 162 160 158 156 155 153 151 151 152 149 148 148 145 141 139